loading
|
Showing default

YAOGAN-43 02D, 60948

Orbit data source: Space-Track

YAOGAN-43 02D, 60948 is a Chinese payload satellite in LEO that was launched on Tue, 03 Sep 2024 UTC via a CHANG ZHENG 4B launch vehicle from the Xichang Space Center, China (XSC). Payloads include a variety of satellites, spacecraft, and rockets equipped with specific instruments for various scientific and technological missions. These include communications satellites like Starlink; space stations such as the ISS; scientific satellites like the Hubble; Earth observation satellites from companies like Planet Labs, Umbra, and HawkEye 360; GPS; miniature CubeSats for education and research; and military/defense satellites.

Loading next visibility...
Loading greatness...
YAOGAN-43 02D details
Identifier
60948, 2024-156D
Orbit
LEO
Last TLE update4 hours ago
Origin
Flag of CNCN / PRC
ManufacturerUnknown
Mission statusOperational
MissionUnknown
Bus & MotorUnknown
MassUnknown
Launch date (UTC)
2024-09-03 (2 weeks ago)
Launch vehicle
CHANG ZHENG 4B
Launch site
Xichang Space Center, China (XSC)
Object type
Payload
Rocket body
Debris
Radar Cross SectionMedium (>0.1 m² and <1 m²)

Expand to show TLE details & history

TLE from 4 hours ago
0 YAOGAN-43 02D
1 60948U 24156D   24259.15915655  .00033945  00000-0  13499-2 0  9996
2 60948  34.9940 263.6172 0008753   4.2997 355.7792 15.24288092  1807
Epoch: 2024-09-15T03:49Z
Definitive object data (Epoch: 2024-09-15T03:49:11.125Z)
Latitude-0.00003°
Longitude-148.28573°
Altitude485.833 km
Speed7.628 km/s
True Right ascension17h 34m 28s
True Declination0° 00' 00"
Sunlit
Object was in daylight at TLE epoch
Predictive object data (real-time)
Latitude-34.92085°
Longitude113.23902°
Altitude503.224 km
Speed7.613 km/s
Apparent Right ascension11h 49m 18s
Apparent Declination-37° 52' 30"
Sunlit
Object is in daylight
Predictive observer data (real-time)
Local Sidereal Time00:45:37
Azimuth83.939° E
Elevation-78.863°
Doppler factor1
Orbital elements
Apogee502.194 km
Perigee490.16 km
Semi-major axis6,874.314 km
Eccentricity0.0008753
Inclination34.994°
RAAN263.6172°
Arg. of periapsis4.2997°
True anomaly355.77181°
Mean anomaly355.7792°
Eccentric anomaly355.77551°
Mean motion3.80802 °/min
BSTAR0.0013499
Period94.54 mins
No data available

YAOGAN-43 02D Visibility forecast

Observer location: 39.9160978°, -105.1181434

YAOGAN-43 02D is not visible in the next 10 days
Span
Click to sort rows by Start time (UTC) header in descending order
Start Az.
Max El. time (UTC)
Max El. Az.
Max El.
End time (UTC)
End Az.